Rifle, CO

9:58 PM MST on February 06, 2016 (GMT -0700)
Garfield County Regional

Weather History for KRIL - October, 2010

Change the Weather History Date:

Saturday, October 23, 2010

  Actual Average Record
Temperature  
Mean Temperature 49 °F 46 °F  
Max Temperature 55 °F 61 °F 79 °F (2003)
Min Temperature 44 °F 31 °F 15 °F (1935)
Degree Days  
Heating Degree Days 16 19  
Month to date heating degree days 332  
Since 1 July heating degree days 478  
Cooling Degree Days 0 0  
Month to date cooling degree days 0  
Year to date cooling degree days 541  
Moisture  
Dew Point 43 °F    
Average Humidity 83    
Maximum Humidity 93    
Minimum Humidity 63    
Precipitation  
Precipitation 0.33 in 0.07 in 1.02 in (1953)
Month to date precipitation 1.41  
Year to date precipitation 11.88  
Sea Level Pressure  
Sea Level Pressure 29.92 in    
Wind  
Wind Speed 4 mph (West)    
Max Wind Speed 14 mph    
Max Gust Speed 16 mph    
Visibility 9 miles    
Events Rain    
T = Trace of Precipitation, MM = Missing Value Source: NWS Daily Summary

Daily Weather History Graph

Daily Weather History Graph

Search for Another Location

Airport or City:

Trip Planner

Search our weather history database for the weather conditions in past years. The results will help you decide how hot, cold, wet, or windy it might be!

Date:

Astronomy

Oct. 23, 2010 Rise Set
Actual Time 7:29 AM MDT 6:20 PM MDT
Civil Twilight 7:01 AM MDT 6:47 PM MDT
Nautical Twilight 6:30 AM MDT 7:19 PM MDT
Astronomical Twilight 5:59 AM MDT 7:50 PM MDT
Moon 6:25 PM MDT (10/23) 8:11 AM MDT (10/23)
Length of Visible Light 11h 45m
Length of Day
10h 51m
Full, 100% of the Moon is Illuminated
Oct 23
Full
Oct 30
Last Quarter
Nov 5
New
Nov 13
First Quarter
Nov 21
Full

Hourly Weather History & Observations

Time (MDT) Temp. Windchill Dew Point Humidity Pressure Visibility Wind Dir Wind Speed Gust Speed Precip Events Conditions
12:47 AM 46.4 °F 45.2 °F 44.6 °F 93% 29.88 in 10.0 mi WNW 3.5 mph - 0.00 in Rain Light Rain
12:53 AM 46.9 °F - 45.0 °F 93% 29.79 in 10.0 mi West 4.6 mph - 0.00 in Rain Light Rain
1:53 AM 46.9 °F - 44.1 °F 90% 29.80 in 10.0 mi Calm Calm - 0.00 in   Overcast
2:53 AM 46.9 °F - 42.1 °F 83% 29.81 in 10.0 mi SW 10.4 mph - N/A   Overcast
3:53 AM 46.0 °F 43.1 °F 42.1 °F 86% 29.81 in 10.0 mi West 5.8 mph - N/A   Overcast
4:11 AM 46.4 °F 43.5 °F 42.8 °F 87% 29.89 in 10.0 mi WNW 5.8 mph - 0.00 in Rain Light Rain
4:53 AM 46.9 °F - 42.1 °F 83% 29.82 in 10.0 mi West 6.9 mph - 0.01 in Rain Light Rain
5:53 AM 46.9 °F - 42.1 °F 83% 29.83 in 10.0 mi SW 8.1 mph - 0.00 in   Overcast
6:53 AM 46.0 °F 41.4 °F 42.1 °F 86% 29.86 in 10.0 mi West 9.2 mph - N/A   Overcast
7:29 AM 46.4 °F - 42.8 °F 87% 29.94 in 10.0 mi Calm Calm - 0.00 in Rain Light Rain
7:39 AM 46.4 °F - 42.8 °F 87% 29.94 in 10.0 mi Calm Calm - 0.00 in   Overcast
7:53 AM 46.0 °F - 43.0 °F 89% 29.88 in 10.0 mi Calm Calm - 0.00 in   Overcast
8:33 AM 46.4 °F - 42.8 °F 87% 29.95 in 10.0 mi Calm Calm - N/A   Overcast
8:45 AM 46.4 °F - 42.8 °F 87% 29.96 in 10.0 mi Calm Calm - N/A   Overcast
8:53 AM 46.9 °F - 43.0 °F 86% 29.89 in 10.0 mi Calm Calm - N/A   Overcast
9:02 AM 46.4 °F - 42.8 °F 87% 29.96 in 10.0 mi Calm Calm - N/A   Overcast
9:32 AM 48.2 °F - 42.8 °F 82% 29.97 in 10.0 mi Calm Calm - N/A   Overcast
9:46 AM 48.2 °F - 44.6 °F 87% 29.98 in 10.0 mi WNW 5.8 mph - N/A   Overcast
9:53 AM 48.0 °F - 44.1 °F 86% 29.90 in 10.0 mi West 5.8 mph - N/A   Overcast
10:19 AM 48.2 °F - 44.6 °F 87% 29.98 in 10.0 mi WSW 5.8 mph - N/A   Overcast
10:27 AM 50.0 °F - 42.8 °F 76% 29.98 in 10.0 mi Variable 4.6 mph - N/A   Mostly Cloudy
10:41 AM 50.0 °F - 42.8 °F 76% 29.98 in 10.0 mi Calm Calm - N/A   Mostly Cloudy
10:53 AM 50.0 °F - 44.1 °F 80% 29.90 in 10.0 mi WSW 3.5 mph - N/A   Mostly Cloudy
11:12 AM 51.8 °F - 42.8 °F 71% 29.98 in 10.0 mi West 3.5 mph - N/A   Mostly Cloudy
11:53 AM 53.1 °F - 44.1 °F 71% 29.88 in 10.0 mi Calm Calm - N/A   Scattered Clouds
12:53 PM 54.0 °F - 42.1 °F 64% 29.87 in 10.0 mi West 13.8 mph - N/A   Mostly Cloudy
1:53 PM 52.0 °F - 39.9 °F 63% 29.87 in 10.0 mi West 13.8 mph - 0.00 in   Mostly Cloudy
2:53 PM 52.0 °F - 41.0 °F 66% 29.86 in 10.0 mi ESE 10.4 mph - N/A   Mostly Cloudy
3:53 PM 48.9 °F - 42.1 °F 77% 29.90 in 4.0 mi WNW 12.7 mph 16.1 mph 0.03 in Rain Light Rain
3:56 PM 48.2 °F - 42.8 °F 82% 29.98 in 1.8 mi West 8.1 mph 16.1 mph 0.06 in Rain Heavy Rain
4:08 PM 46.4 °F - 42.8 °F 87% 29.97 in 3.0 mi Calm Calm - 0.09 in Rain Light Rain
4:34 PM 48.2 °F - 41.0 °F 76% 29.98 in 5.0 mi Calm Calm - 0.12 in Rain Light Rain
4:53 PM 46.9 °F - 42.1 °F 83% 29.90 in 4.0 mi SE 11.5 mph - 0.16 in Rain Rain
5:53 PM 46.9 °F - 44.1 °F 90% 29.91 in 10.0 mi East 4.6 mph - 0.00 in   Overcast
6:53 PM 46.0 °F - 44.1 °F 93% 29.92 in 10.0 mi Calm Calm - N/A   Mostly Cloudy
7:53 PM 46.0 °F - 44.1 °F 93% 29.94 in 10.0 mi Calm Calm - N/A   Mostly Cloudy
8:53 PM 45.0 °F 42.6 °F 42.1 °F 90% 29.94 in 10.0 mi SSE 4.6 mph - N/A   Overcast
9:53 PM 46.0 °F - 43.0 °F 89% 29.96 in 6.0 mi Calm Calm - 0.02 in Rain Rain
10:53 PM 45.0 °F 39.3 °F 42.1 °F 90% 29.96 in 4.0 mi West 11.5 mph - 0.10 in Rain Rain
11:15 PM 44.6 °F - 41.0 °F 87% 30.04 in 10.0 mi Calm Calm - 0.01 in   Overcast
11:53 PM 44.1 °F 40.1 °F 39.0 °F 82% 29.96 in 10.0 mi East 6.9 mph - 0.01 in   Mostly Cloudy